#timestamp,LO_Frequency,Hit,StdDev 
1455606015.9,286046989.7,Y
1455606035.7,286046997.4,P
1455606055.6,286046995.6,N
1455606075.4,286046991.9,P
1455606095.2,286046994.6,N
1455606115.1,286046996.2,N
1455606116.0,286046996.2,N
1455606135.8,286046996.7,N
1455606155.6,286046998.0,N
1455606175.4,286046995.3,N
1455606195.3,286046993.9,Y
1455606215.1,286046997.8,P
1455606235.9,286046995.4,P
1455606255.7,286046994.6,P
1455606275.5,286046993.5,Y
1455606295.4,286047000.9,P
1455606315.2,286046998.4,N
1455606335.0,286046996.6,N
1455606335.9,286046996.6,N
1455606355.7,286046999.5,N
1455606375.6,286046999.0,N
1455606395.4,286047002.6,N
1455606415.2,286047002.8,N
1455606435.1,286047001.9,N
1455606436.0,286047001.9,N
1455606455.8,286047002.8,N
1455606475.6,286047002.6,N
1455606495.5,286047001.6,N
1455606515.3,286047002.5,N
1455606535.1,286047001.7,N
1455606555.9,286047002.1,N
1455606575.7,286047003.9,N
1455606595.5,286047001.7,N
1455606615.4,286047000.8,N
1455606635.2,286047000.6,N
1455606655.0,286047000.5,N
1455606655.9,286047000.5,N
1455606675.7,286046999.3,N
1455606695.6,286046998.0,N
1455606715.4,286046999.6,N
1455606735.2,286046997.0,N
1455606755.1,286047000.2,N
1455606756.0,286047000.2,N
1455606775.8,286047002.4,N
1455606795.6,286047000.8,N
1455606815.5,286046998.4,N
1455606835.3,286046995.4,N
1455606855.1,286046995.5,N
1455606875.9,286046996.6,N
1455606895.7,286046993.5,N
1455606915.5,286046992.0,Y
1455606935.4,286046993.1,P
1455606955.2,286046993.7,N
1455606975.0,286046999.1,N
1455606975.9,286046999.1,N
1455606995.8,286046998.5,N
1455607015.6,286046998.3,N
1455607035.4,286047000.9,N
1455607055.3,286046996.7,N
1455607075.1,286046996.8,N
1455607076.0,286046996.8,N
1455607095.8,286046996.8,N
1455607115.7,286046997.3,N
1455607135.5,286046993.5,N
1455607155.3,286046991.3,Y
1455607175.2,286046988.8,P
1455607195.9,286046987.4,P
1455607215.7,286046987.2,N
1455607235.5,286046989.2,N
1455607255.4,286046989.1,N
1455607275.2,286046992.8,N
1455607295.0,286046994.4,N
1455607295.9,286046994.4,N
1455607315.8,286046994.9,N
1455607335.6,286046995.3,N
1455607355.4,286046996.6,N
1455607375.3,286046996.8,N
1455607395.1,286046994.1,N
1455607396.0,286046994.1,N
1455607415.8,286046993.5,N
1455607435.7,286046997.8,N
1455607455.5,286046996.5,N
1455607475.3,286046997.2,N
1455607495.1,286046996.1,N
1455607515.9,286046997.9,N
1455607535.7,286046997.4,N
1455607555.5,286046993.9,N
1455607575.4,286046996.4,N
1455607595.2,286046992.1,N
1455607615.0,286046994.6,N
1455607615.9,286046994.6,N
1455607635.8,286046996.8,N
1455607655.6,286046993.8,N
1455607675.4,286046993.2,N
1455607695.3,286046991.0,N
1455607715.1,286046993.1,N
1455607716.0,286046993.1,N
1455607735.8,286046995.2,N
1455607755.7,286046995.8,N
1455607775.5,286046994.4,N
1455607795.3,286046994.9,N
1455607815.1,286046995.2,N
1455607835.9,286046996.8,N
1455607855.7,286046995.1,N
1455607875.5,286046995.3,N
1455607895.4,286046996.5,N
1455607915.2,286046997.9,N
1455607935.0,286046996.5,N
1455607935.9,286046996.5,N
1455607955.8,286046996.6,N
1455607975.6,286047001.0,N
1455607995.4,286047000.0,N
1455608015.3,286047000.7,N
1455608035.1,286047002.7,N
1455608036.0,286047002.7,N
1455608055.8,286046999.2,N
1455608075.7,286046993.9,N
1455608095.5,286046997.1,N
1455608115.3,286046995.5,N
1455608135.2,286046998.0,N
1455608155.9,286046997.2,N
1455608175.7,286046995.9,N
1455608195.6,286047000.6,N
1455608215.4,286046999.8,N
1455608235.2,286047002.8,N
1455608255.0,286047000.7,N
1455608255.9,286047000.7,N
1455608275.8,286046996.8,N
1455608295.6,286046996.4,N
1455608315.4,286046992.3,N
1455608335.3,286046993.8,N
1455608355.1,286046993.9,N
1455608375.8,286046993.7,N
1455608395.7,286046993.6,N
1455608415.5,286046992.0,N
1455608435.3,286046992.5,N
1455608455.2,286046993.3,N
1455608475.9,286046995.3,N
1455608495.7,286046995.7,N
1455608515.6,286046996.1,N
1455608535.4,286046993.3,N
1455608555.2,286046996.3,N
1455608575.0,286046993.4,N
1455608576.0,286046993.4,N
1455608595.8,286046996.7,N
1455608615.6,286046999.8,N
1455608635.4,286047003.8,N
1455608655.3,286047001.6,N
1455608675.1,286047005.9,N
1455608695.8,286047003.3,N
1455608715.7,286047003.2,N
1455608735.5,286047001.3,N
1455608755.3,286047003.3,N
1455608775.2,286047005.9,N
1455608795.9,286047002.3,N
1455608815.7,286047000.0,N
1455608835.6,286047000.0,N
1455608855.4,286046999.8,N
1455608875.2,286046998.3,N
1455608895.1,286047002.7,N
1455608896.0,286047002.7,N
1455608915.8,286046999.9,N
1455608935.6,286047000.3,N
1455608955.5,286047002.0,N
1455608975.3,286047002.7,N
1455608995.1,286046999.6,N
1455609015.8,286046996.8,N
1455609035.7,286047002.3,N
1455609055.5,286047000.1,N
1455609075.3,286046997.1,N
1455609095.2,286046996.3,N
1455609115.9,286046988.5,Y
1455609135.7,286046988.5,P
1455609155.6,286046989.0,N
1455609175.4,286046988.5,N
1455609195.2,286046985.8,N
1455609215.1,286046987.8,N
1455609216.0,286046987.8,N
1455609235.8,286046987.4,N
1455609255.6,286046984.0,Y
1455609275.5,286046992.6,P
1455609295.3,286046990.1,P
1455609315.1,286046991.3,P
1455609335.9,286046988.9,Y
1455609355.7,286046999.8,P
1455609375.5,286047004.4,N
1455609395.4,286047002.7,N
1455609415.2,286047001.6,N
1455609435.0,286047000.4,N
1455609435.9,286047000.4,N
1455609455.8,286047002.5,N
1455609475.6,286047003.2,N
1455609495.4,286047002.5,N
1455609515.3,286047000.7,N
1455609535.1,286047000.3,N
1455609536.0,286047000.3,N
1455609555.8,286047002.5,N
1455609575.7,286047001.2,N
1455609595.5,286046998.4,N
1455606015.4,286047003.6,N
1455606035.3,286047004.3,N
1455606055.1,286047006.3,N
1455606056.0,286047006.3,N
1455606075.8,286047007.6,N
1455606095.7,286047006.4,N
1455606115.5,286047006.8,N
1455606135.3,286047005.1,N
1455606155.1,286047003.3,N
1455606175.9,286047000.6,N
1455606195.7,286047001.6,N
1455606215.5,286046998.2,N
1455606235.4,286047001.7,N
1455606255.2,286047001.0,N
1455606275.0,286046999.1,N
1455606275.9,286046999.1,N
1455606295.8,286046996.5,N
1455606315.6,286046998.4,N
1455606335.4,286047000.6,N
1455606355.3,286046999.6,N
1455606375.1,286046998.0,N
1455606376.0,286046998.0,N
1455606395.8,286046997.9,N
1455606415.7,286046999.6,N
1455606435.5,286046998.8,N
1455606455.3,286047001.0,N
1455606475.2,286047002.8,N
1455606495.9,286047004.2,N
1455606515.7,286047003.1,N
1455606535.5,286047006.3,N
1455606555.4,286047007.1,N
1455606575.2,286047007.6,N
1455606595.0,286047008.9,N
1455606595.9,286047008.9,N
1455606615.8,286047006.3,N
1455606635.6,286047007.5,N
1455606655.4,286047004.4,N
1455606675.3,286047002.7,N
1455606695.1,286047004.2,N
1455606715.8,286047003.5,N
1455606735.7,286047001.3,N
1455606755.5,286047001.5,N
1455606775.3,286047002.5,N
1455606795.2,286047004.2,N
1455606815.9,286047004.6,N
1455606835.7,286047005.3,N
1455606855.6,286047003.7,N
1455606875.4,286047004.7,N
1455606895.2,286047005.2,N
1455606915.0,286047004.1,N
1455606915.9,286047004.1,N
1455606935.8,286047004.6,N
1455606955.6,286047009.2,Y
1455606975.4,286047004.8,P
1455606995.3,286047007.3,P
1455607015.1,286047002.2,N
1455607035.8,286047003.9,N
1455607055.7,286047005.0,N
1455607075.5,286047008.9,Y
1455607095.3,286046999.9,P
1455607115.2,286047001.7,N
1455607135.0,286047002.6,N
1455607135.9,286047002.6,N
1455607155.7,286047003.9,N
1455607175.6,286047003.2,N
1455607195.4,286047003.1,N
1455607215.2,286047006.5,Y
1455607235.1,286047005.9,P
1455607236.0,286047005.9,P
1455607255.8,286047004.6,P
1455607275.6,286047001.7,N
1455607295.5,286047003.0,N
1455607315.3,286047004.9,Y
1455607335.1,286047005.8,P
1455607355.9,286047005.6,P
1455607375.7,286047005.6,P
1455607395.5,286047007.0,Y
1455607415.4,286046999.0,P
1455607435.2,286046999.3,N
1455607455.0,286046999.3,N
1455607455.9,286046999.3,N
1455607475.8,286047002.2,N
1455607495.6,286046999.7,N
1455607515.4,286047006.6,Y
1455607535.3,286047007.5,P
1455607555.1,286047007.9,N
1455607556.0,286047007.9,N
1455607575.8,286047012.3,Y
1455607595.7,286047002.9,P
1455607615.5,286047002.0,N
1455607635.3,286046999.9,N
1455607655.2,286047003.5,N
1455607675.9,286047006.3,Y
1455607695.7,286047000.5,P
1455607715.6,286046999.6,N
1455607735.4,286046997.5,N
1455607755.2,286046995.2,N
1455607775.1,286046995.8,N
1455607776.0,286046995.8,N
1455607795.8,286047002.4,N
1455607815.6,286047004.0,N
1455607835.4,286047006.8,N
1455607855.3,286047006.6,N
1455607875.1,286047008.4,N
1455607895.8,286047011.0,N
1455607915.7,286047013.7,N
1455607935.5,286047014.4,N
1455607955.3,286047016.1,N
1455607975.2,286047016.0,N
1455607995.9,286047012.5,N
1455608015.7,286047010.1,N
1455608035.6,286047006.4,N
1455608055.4,286047007.4,N
1455608075.2,286047008.9,N
1455608095.1,286047008.5,N
1455608096.0,286047008.5,N
1455608115.8,286047005.8,N
1455608135.6,286047001.5,N
1455608155.5,286047001.7,N
1455608175.3,286047003.4,N
1455608195.1,286047006.4,N
1455608215.8,286047009.2,N
1455608235.7,286047008.7,N
1455608255.5,286047002.0,N
1455608275.3,286047004.0,N
1455608295.2,286047002.5,N
1455608315.9,286047004.4,N
1455608335.7,286046998.9,N
1455608355.6,286046997.7,N
1455608375.4,286046993.8,N
1455608395.2,286046990.1,N
1455608415.1,286046991.9,N
1455608416.0,286046991.9,N
1455608435.8,286046996.1,N
1455608455.6,286046993.6,N
1455608475.5,286046991.8,N
1455608495.3,286046995.0,N
1455608515.1,286046998.6,N
1455608535.8,286046997.3,N
1455608555.7,286046997.6,N
1455608575.5,286046995.6,N
1455608595.3,286046996.3,N
1455608615.2,286046994.2,N
1455608635.9,286046991.4,N
1455608655.7,286046992.5,N
1455608675.6,286046993.2,N
1455608695.4,286046993.4,N
1455608715.2,286046996.9,N
1455608735.1,286046998.3,N
1455608736.0,286046998.3,N
1455608755.8,286046995.0,N
1455608775.6,286046991.9,N
1455608795.5,286046990.0,N
1455608815.3,286046985.4,Y
1455608835.1,286046990.0,P
1455608855.9,286046990.6,P
1455608875.7,286046989.1,P
1455608895.5,286046993.5,N
1455608915.3,286046996.4,N
1455608935.2,286046995.0,N
1455608955.0,286046996.9,N
1455608955.9,286046996.9,N
1455608975.7,286046999.1,N
1455608995.6,286046999.6,N
1455609015.4,286046996.6,N
1455609035.2,286046998.5,N
1455609055.1,286046997.1,N
1455609056.0,286046997.1,N
1455609075.8,286046999.1,N
1455609095.6,286046998.2,N
1455609115.5,286047002.7,N
1455609135.3,286047001.5,N
1455609155.1,286047002.1,N
1455609175.9,286047001.6,N
1455609195.7,286047002.6,N
1455609215.5,286046998.3,N
1455609235.3,286046997.1,N
1455609255.2,286046997.4,N
1455609275.0,286046998.6,N
1455609275.9,286046998.6,N
1455609295.7,286047000.5,N
1455609315.6,286047004.0,N
1455609335.4,286047003.0,N
1455609355.2,286047005.9,N
1455609375.1,286047005.4,N
1455609376.0,286047005.4,N
1455609395.8,286047001.3,N
1455609415.6,286046998.3,N
1455609435.5,286046997.6,N
1455609455.3,286046996.7,N
1455609475.1,286046994.9,N
1455609495.9,286046997.1,N
1455609515.7,286046997.8,N
1455609535.5,286046998.8,N
1455609555.4,286046998.8,N
1455609575.2,286046997.0,N
1455609595.0,286046999.6,N
1455609595.9,286046999.6,N
